Location: Amsterdam
(30.7274°N, 84.4357°W)
Time: 01:27:46
(UTC+00:00)

Courier 1B - All Passes

Search period start: 07 February 2026 00:00
Search period end: 17 February 2026 00:00
Orbit: 962 x 1208 km, 28.3° (Epoch: 6 February)

Date Brightness Start Highest point End Pass type
(mag) Time Alt. Az. Time Alt. Az. Time Alt. Az.
7 Feb - 03:24:13 10° SSW 03:30:14 24° SSE 03:36:13 10° ESE night (unlit)
7 Feb - 05:16:31 10° WSW 05:24:06 53° SSE 05:31:28 10° E night (unlit)
7 Feb - 07:10:34 10° W 07:18:19 75° S 07:25:41 10° E night (unlit)
7 Feb - 09:05:05 10° W 09:12:33 64° SSW 09:19:32 10° ESE visible
7 Feb - 11:00:01 10° W 11:06:18 32° SSW 11:12:16 10° SE visible
8 Feb - 02:31:21 10° S 02:36:20 18° SSE 02:41:20 10° ESE visible
8 Feb - 04:22:42 10° SW 04:30:05 45° SSE 04:37:21 10° E night (unlit)
8 Feb - 06:16:26 10° WSW 06:24:14 72° S 06:31:45 10° E night (unlit)
8 Feb - 08:10:53 10° W 08:18:33 70° S 08:25:46 10° ESE visible
8 Feb - 10:05:38 10° W 10:12:30 41° SSW 10:18:57 10° SE visible
8 Feb - 12:02:17 10° WSW 12:05:53 15° SSW 12:09:23 10° S visible
9 Feb - 01:39:17 10° S 01:42:28 13° SSE 01:45:42 10° ESE visible
9 Feb - 03:29:04 10° SW 03:36:06 37° SSE 03:43:07 10° E visible
9 Feb - 05:22:22 10° WSW 05:30:09 66° S 05:37:45 10° E night (unlit)
9 Feb - 07:16:43 10° W 07:24:30 74° S 07:31:55 10° E night (unlit)
9 Feb - 09:11:20 10° W 09:18:37 50° SSW 09:25:28 10° SE visible
9 Feb - 11:07:02 10° WSW 11:12:10 21° SSW 11:17:05 10° SSE visible
10 Feb - 02:35:41 10° SSW 02:42:10 29° SSE 02:48:43 10° E visible
10 Feb - 04:28:24 10° WSW 04:36:05 59° SSE 04:43:43 10° E night (unlit)
10 Feb - 06:22:33 10° W 06:30:25 76° S 06:37:59 10° E night (unlit)
10 Feb - 08:17:06 10° W 08:24:39 59° SSW 08:31:49 10° ESE visible
10 Feb - 10:12:17 10° W 10:18:23 28° SSW 10:24:12 10° SSE visible
11 Feb - 01:42:35 10° SSW 01:48:16 23° SSE 01:54:03 10° ESE visible
11 Feb - 03:34:33 10° SW 03:42:03 51° SSE 03:49:35 10° E visible
11 Feb - 05:28:26 10° W 05:36:18 75° S 05:44:00 10° E night (unlit)
11 Feb - 07:22:54 10° W 07:30:38 66° S 07:38:03 10° ESE night (unlit)
11 Feb - 09:17:46 10° W 09:24:34 36° SSW 09:31:01 10° SE visible
11 Feb - 11:15:49 10° SW 11:17:57 11° SW 11:20:03 10° SSW visible
12 Feb - 00:49:58 10° S 00:54:25 17° SSE 00:58:56 10° ESE visible
12 Feb - 02:40:52 10° SW 02:48:03 43° SSE 02:55:22 10° E visible
12 Feb - 04:34:22 10° WSW 04:42:11 71° S 04:49:57 10° E night (unlit)
12 Feb - 06:28:44 10° W 06:36:34 72° S 06:44:10 10° ESE night (unlit)
12 Feb - 08:23:24 10° W 08:30:40 44° SSW 08:37:36 10° SE visible
12 Feb - 10:19:42 10° WSW 10:24:12 17° SSW 10:28:34 10° S visible
12 Feb - 23:58:38 10° SSE 00:00:36 11° SE 00:02:35 10° SE visible
13 Feb - 01:47:23 10° SW 01:54:06 35° SSE 02:01:00 10° E visible
13 Feb - 03:40:25 10° WSW 03:48:05 65° SSE 03:55:52 10° E visible
13 Feb - 05:34:36 10° W 05:42:27 75° S 05:50:12 10° E night (unlit)
13 Feb - 07:29:08 10° W 07:36:42 53° SSW 07:43:59 10° ESE night (unlit)
13 Feb - 09:24:39 10° WSW 09:30:25 23° SSW 09:35:58 10° SSE visible
14 Feb - 00:54:09 10° SSW 01:00:13 27° SSE 01:06:28 10° E visible
14 Feb - 02:46:33 10° WSW 02:54:02 57° SSE 03:01:42 10° E visible
14 Feb - 04:40:31 10° W 04:48:20 76° S 04:56:10 10° E night (unlit)
14 Feb - 06:34:57 10° W 06:42:40 61° SSW 06:50:13 10° ESE night (unlit)
14 Feb - 08:29:58 10° W 08:36:33 31° SSW 08:42:55 10° SSE visible
15 Feb - 00:01:17 10° SSW 00:06:23 20° SSE 00:11:39 10° ESE visible
15 Feb - 01:52:51 10° SW 02:00:01 49° SSE 02:07:28 10° E visible
15 Feb - 03:46:29 10° WSW 03:54:12 74° S 04:02:04 10° E visible
15 Feb - 05:40:48 10° W 05:48:36 68° S 05:56:19 10° ESE night (unlit)
15 Feb - 07:35:32 10° W 07:42:39 39° SSW 07:49:34 10° SE night (unlit)
15 Feb - 09:32:43 10° WSW 09:36:11 14° SSW 09:39:36 10° S visible
15 Feb - 23:09:01 10° S 23:12:36 14° SSE 23:16:16 10° ESE daylight
16 Feb - 00:59:18 10° SW 01:06:04 40° SSE 01:13:10 10° E visible
16 Feb - 02:52:33 10° WSW 03:00:06 70° S 03:07:56 10° E visible
16 Feb - 04:46:43 10° W 04:54:29 73° S 05:02:19 10° ESE night (unlit)
16 Feb - 06:41:14 10° W 06:48:41 47° SSW 06:56:00 10° SE night (unlit)
16 Feb - 08:37:11 10° WSW 08:42:22 19° SSW 08:47:27 10° SSE visible
